Portada
METAR-TAF:

METAR-TAF

Aeropuertos :

Asaluyeh, Irán

latitud: 27-22-46N, longitud: 52-44-15E, altitud: 8 m

Observación

El informe se hizo hace 9 horas y 3 minutos, a las 18:00 UTC
Viento 25 kt del oeste-noroeste
Temperatura 20°C
Humedad 56%
Presión 1015 hPa
Visibilidad: 4000 m
Polvo extendido

METAR: OIBP 261800Z 30025KT 4000 DU NSC 20/11 Q1015 A2997

Hora: 06:33 (03:03 UTC)


TAF: falta

Observaciones y pronósticos meteorológicos de más de 4000 aeropuertos (mensajes METAR y TAF).

Los puntos amarillos y rojos representan las estaciones disponibles.

Ponga el ratón en el punto deseado para ver el nombre de la estación.

Haga clic para ver las observaciones y los pronósticos meteorológicos.

Para cambiar el mapa : haga clic en los botones verdes con una cruz de color negro para hacer un zoom, en el botón verde con un guión para alejar o en las flechas verdes para mapas adyacentes.


METAR-TAF: